Time,TemperatureF,DewpointF,PressureIn,WindDirection,WindDirectionDegrees,WindSpeedMPH,WindSpeedGustMPH,Humidity,HourlyPrecipIn,Conditions,Clouds,dailyrainin,SoftwareType,DateUTC
2013-06-28 00:11:00,82.0,78.0,29.84,SW,229,9.0,11.0,88,0.00,,,0.00,weatherlink.com 1.10,2013-06-28 04:11:00,
2013-06-28 00:26:00,82.1,78.0,29.84,SW,228,6.0,10.0,88,0.00,,,0.00,weatherlink.com 1.10,2013-06-28 04:26:00,
2013-06-28 00:41:00,82.1,78.0,29.84,SW,228,9.0,11.0,88,0.00,,,0.00,weatherlink.com 1.10,2013-06-28 04:41:00,
2013-06-28 00:56:00,82.0,79.0,29.83,WSW,237,5.0,10.0,89,0.00,,,0.00,weatherlink.com 1.10,2013-06-28 04:56:00,
2013-06-28 01:11:00,82.0,79.0,29.82,SSW,193,6.0,13.0,90,0.00,,,0.00,weatherlink.com 1.10,2013-06-28 05:11:00,
2013-06-28 01:26:00,82.0,79.0,29.82,SSW,195,4.0,13.0,90,0.00,,,0.00,weatherlink.com 1.10,2013-06-28 05:26:00,
2013-06-28 01:41:00,82.0,79.0,29.82,WSW,257,7.0,13.0,90,0.00,,,0.00,weatherlink.com 1.10,2013-06-28 05:41:00,
2013-06-28 01:56:00,82.0,79.0,29.82,SSW,203,5.0,11.0,91,0.00,,,0.00,weatherlink.com 1.10,2013-06-28 05:56:00,
2013-06-28 02:11:00,82.0,79.0,29.82,SW,229,9.0,11.0,90,0.00,,,0.00,weatherlink.com 1.10,2013-06-28 06:11:00,
2013-06-28 02:26:00,81.8,78.0,29.82,WSW,252,7.0,11.0,89,0.00,,,0.00,weatherlink.com 1.10,2013-06-28 06:26:00,
2013-06-28 02:41:00,81.8,78.0,29.82,SW,236,5.0,8.0,87,0.00,,,0.00,weatherlink.com 1.10,2013-06-28 06:41:00,
2013-06-28 02:56:00,81.6,76.0,29.81,SW,234,5.0,10.0,84,0.00,,,0.00,weatherlink.com 1.10,2013-06-28 06:56:00,
2013-06-28 03:11:00,81.3,76.0,29.81,WSW,254,5.0,10.0,84,0.00,,,0.00,weatherlink.com 1.10,2013-06-28 07:11:00,
2013-06-28 03:26:00,81.0,76.0,29.81,West,264,5.0,11.0,85,0.00,,,0.00,weatherlink.com 1.10,2013-06-28 07:26:00,
2013-06-28 03:41:00,80.6,76.0,29.80,WSW,248,7.0,16.0,85,0.00,,,0.00,weatherlink.com 1.10,2013-06-28 07:41:00,
2013-06-28 03:56:00,80.3,76.0,29.80,WSW,240,5.0,10.0,85,0.00,,,0.00,weatherlink.com 1.10,2013-06-28 07:56:00,
2013-06-28 04:11:00,80.0,75.0,29.80,West,264,2.0,8.0,85,0.00,,,0.00,weatherlink.com 1.10,2013-06-28 08:11:00,
2013-06-28 04:26:00,79.8,75.0,29.80,SW,232,4.0,10.0,85,0.00,,,0.00,weatherlink.com 1.10,2013-06-28 08:26:00,
2013-06-28 04:41:00,79.6,75.0,29.79,SW,235,5.0,9.0,85,0.00,,,0.00,weatherlink.com 1.10,2013-06-28 08:41:00,
2013-06-28 04:57:00,79.3,75.0,29.78,WSW,246,4.0,10.0,86,0.00,,,0.00,weatherlink.com 1.10,2013-06-28 08:57:00,
2013-06-28 05:12:00,79.2,75.0,29.78,WSW,239,8.0,13.0,86,0.00,,,0.00,weatherlink.com 1.10,2013-06-28 09:12:00,
2013-06-28 05:27:00,79.4,75.0,29.78,WSW,242,7.0,13.0,86,0.00,,,0.00,weatherlink.com 1.10,2013-06-28 09:27:00,
2013-06-28 05:42:00,79.3,75.0,29.78,WSW,239,7.0,9.0,86,0.00,,,0.00,weatherlink.com 1.10,2013-06-28 09:42:00,
2013-06-28 05:57:00,79.2,75.0,29.78,West,281,5.0,10.0,86,0.00,,,0.00,weatherlink.com 1.10,2013-06-28 09:57:00,
2013-06-28 06:12:00,79.0,75.0,29.77,SW,236,6.0,11.0,87,0.00,,,0.00,weatherlink.com 1.10,2013-06-28 10:12:00,
2013-06-28 06:27:00,79.0,75.0,29.78,SSW,208,5.0,12.0,87,0.00,,,0.00,weatherlink.com 1.10,2013-06-28 10:27:00,
2013-06-28 06:42:00,78.8,75.0,29.78,West,270,5.0,11.0,87,0.00,,,0.00,weatherlink.com 1.10,2013-06-28 10:42:00,
2013-06-28 06:57:00,78.8,75.0,29.79,SW,217,6.0,9.0,88,0.00,,,0.00,weatherlink.com 1.10,2013-06-28 10:57:00,
2013-06-28 07:12:00,78.8,75.0,29.79,West,262,9.0,10.0,88,0.00,,,0.00,weatherlink.com 1.10,2013-06-28 11:12:00,
2013-06-28 07:27:00,79.0,75.0,29.80,WSW,239,8.0,10.0,88,0.00,,,0.00,weatherlink.com 1.10,2013-06-28 11:27:00,
2013-06-28 07:42:00,79.1,75.0,29.80,West,270,8.0,13.0,88,0.00,,,0.00,weatherlink.com 1.10,2013-06-28 11:42:00,
2013-06-28 07:57:00,79.3,76.0,29.80,WSW,255,6.0,13.0,88,0.00,,,0.00,weatherlink.com 1.10,2013-06-28 11:57:00,
2013-06-28 08:12:00,79.4,75.0,29.80,West,274,5.0,12.0,87,0.00,,,0.00,weatherlink.com 1.10,2013-06-28 12:12:00,
2013-06-28 08:27:00,79.7,75.0,29.80,WSW,240,6.0,16.0,86,0.00,,,0.00,weatherlink.com 1.10,2013-06-28 12:27:00,
2013-06-28 08:42:00,79.9,75.0,29.79,West,260,8.0,15.0,85,0.00,,,0.00,weatherlink.com 1.10,2013-06-28 12:42:00,
2013-06-28 08:57:00,80.6,75.0,29.79,SW,235,10.0,15.0,84,0.00,,,0.00,weatherlink.com 1.10,2013-06-28 12:57:00,
2013-06-28 09:12:00,81.0,75.0,29.80,SW,233,11.0,16.0,83,0.00,,,0.00,weatherlink.com 1.10,2013-06-28 13:12:00,
2013-06-28 09:27:00,81.0,76.0,29.80,NNW,328,6.0,12.0,84,0.00,,,0.00,weatherlink.com 1.10,2013-06-28 13:27:00,
2013-06-28 09:42:00,81.2,76.0,29.79,West,273,6.0,13.0,83,0.00,,,0.00,weatherlink.com 1.10,2013-06-28 13:42:00,
2013-06-28 09:57:00,81.9,76.0,29.79,WSW,255,4.0,13.0,81,0.00,,,0.00,weatherlink.com 1.10,2013-06-28 13:57:00,
2013-06-28 10:12:00,82.4,76.0,29.78,WSW,248,6.0,13.0,81,0.00,,,0.00,weatherlink.com 1.10,2013-06-28 14:12:00,
2013-06-28 10:27:00,83.0,76.0,29.78,SW,217,5.0,12.0,80,0.00,,,0.00,weatherlink.com 1.10,2013-06-28 14:27:00,
2013-06-28 10:42:00,83.6,77.0,29.78,West,281,10.0,12.0,79,0.00,,,0.00,weatherlink.com 1.10,2013-06-28 14:42:00,
2013-06-28 10:57:00,84.1,77.0,29.78,WNW,287,6.0,12.0,79,0.00,,,0.00,weatherlink.com 1.10,2013-06-28 14:57:00,
2013-06-28 11:12:00,84.7,77.0,29.78,WNW,283,5.0,13.0,77,0.00,,,0.00,weatherlink.com 1.10,2013-06-28 15:12:00,
2013-06-28 11:27:00,84.4,77.0,29.78,West,263,5.0,12.0,78,0.00,,,0.00,weatherlink.com 1.10,2013-06-28 15:27:00,
2013-06-28 11:42:00,85.1,78.0,29.78,WSW,248,8.0,12.0,78,0.00,,,0.00,weatherlink.com 1.10,2013-06-28 15:42:00,
2013-06-28 11:57:00,85.0,77.0,29.78,WSW,253,7.0,12.0,78,0.00,,,0.00,weatherlink.com 1.10,2013-06-28 15:57:00,
2013-06-28 12:12:00,85.6,77.0,29.78,NNW,345,2.0,12.0,76,0.00,,,0.00,weatherlink.com 1.10,2013-06-28 16:12:00,
2013-06-28 12:27:00,85.9,78.0,29.77,WSW,250,4.0,11.0,77,0.00,,,0.00,weatherlink.com 1.10,2013-06-28 16:27:00,
2013-06-28 12:43:00,86.3,78.0,29.77,West,267,7.0,8.0,76,0.00,,,0.00,weatherlink.com 1.10,2013-06-28 16:43:00,
2013-06-28 12:58:00,86.7,78.0,29.76,West,267,6.0,14.0,76,0.00,,,0.00,weatherlink.com 1.10,2013-06-28 16:58:00,
2013-06-28 13:13:00,87.2,79.0,29.76,WSW,256,8.0,10.0,76,0.00,,,0.00,weatherlink.com 1.10,2013-06-28 17:13:00,
2013-06-28 13:28:00,85.6,80.0,29.75,West,274,9.0,17.0,82,0.00,,,0.00,weatherlink.com 1.10,2013-06-28 17:28:00,
2013-06-28 13:43:00,85.9,80.0,29.75,WSW,245,12.0,19.0,83,0.00,,,0.00,weatherlink.com 1.10,2013-06-28 17:43:00,
2013-06-28 13:58:00,85.9,80.0,29.74,SW,232,12.0,18.0,82,0.00,,,0.00,weatherlink.com 1.10,2013-06-28 17:58:00,
2013-06-28 14:13:00,85.8,79.0,29.74,SW,227,16.0,18.0,81,0.00,,,0.00,weatherlink.com 1.10,2013-06-28 18:13:00,
2013-06-28 14:28:00,85.9,80.0,29.73,West,273,11.0,23.0,81,0.00,,,0.00,weatherlink.com 1.10,2013-06-28 18:28:00,
2013-06-28 14:43:00,86.0,80.0,29.73,SSW,204,7.0,20.0,82,0.00,,,0.00,weatherlink.com 1.10,2013-06-28 18:43:00,
2013-06-28 14:58:00,86.0,80.0,29.73,WSW,248,9.0,16.0,82,0.00,,,0.00,weatherlink.com 1.10,2013-06-28 18:58:00,
2013-06-28 15:13:00,86.2,80.0,29.72,WSW,253,5.0,16.0,81,0.00,,,0.00,weatherlink.com 1.10,2013-06-28 19:13:00,
2013-06-28 15:28:00,86.5,80.0,29.72,SSW,198,10.0,16.0,82,0.00,,,0.00,weatherlink.com 1.10,2013-06-28 19:28:00,
2013-06-28 15:43:00,85.8,80.0,29.73,South,175,5.0,18.0,83,0.00,,,0.00,weatherlink.com 1.10,2013-06-28 19:43:00,
2013-06-28 15:58:00,85.6,80.0,29.73,WSW,239,14.0,18.0,83,0.00,,,0.00,weatherlink.com 1.10,2013-06-28 19:58:00,
2013-06-28 16:13:00,86.1,80.0,29.72,WSW,255,8.0,18.0,83,0.00,,,0.00,weatherlink.com 1.10,2013-06-28 20:13:00,
2013-06-28 16:28:00,86.5,80.0,29.71,West,271,11.0,18.0,81,0.00,,,0.00,weatherlink.com 1.10,2013-06-28 20:28:00,
2013-06-28 16:43:00,87.1,81.0,29.71,WSW,253,11.0,14.0,81,0.00,,,0.00,weatherlink.com 1.10,2013-06-28 20:43:00,
2013-06-28 16:58:00,86.8,80.0,29.71,West,262,9.0,18.0,81,0.00,,,0.00,weatherlink.com 1.10,2013-06-28 20:58:00,
2013-06-28 17:13:00,87.1,81.0,29.70,West,259,10.0,20.0,81,0.00,,,0.00,weatherlink.com 1.10,2013-06-28 21:13:00,
2013-06-28 17:28:00,86.6,80.0,29.70,WSW,238,8.0,18.0,81,0.00,,,0.00,weatherlink.com 1.10,2013-06-28 21:28:00,
2013-06-28 17:43:00,86.1,80.0,29.69,West,280,8.0,18.0,83,0.00,,,0.00,weatherlink.com 1.10,2013-06-28 21:43:00,
2013-06-28 17:58:00,85.9,80.0,29.68,West,264,7.0,18.0,83,0.00,,,0.00,weatherlink.com 1.10,2013-06-28 21:58:00,
2013-06-28 18:13:00,86.2,79.0,29.69,SW,231,18.0,18.0,79,0.00,,,0.00,weatherlink.com 1.10,2013-06-28 22:13:00,
2013-06-28 18:28:00,85.6,79.0,29.68,SW,231,8.0,17.0,81,0.00,,,0.00,weatherlink.com 1.10,2013-06-28 22:28:00,
2013-06-28 18:43:00,85.7,79.0,29.68,WSW,240,12.0,18.0,80,0.00,,,0.00,weatherlink.com 1.10,2013-06-28 22:43:00,
2013-06-28 18:58:00,86.0,80.0,29.68,SW,221,12.0,15.0,81,0.00,,,0.00,weatherlink.com 1.10,2013-06-28 22:58:00,
2013-06-28 19:13:00,86.4,80.0,29.69,SW,232,6.0,12.0,81,0.00,,,0.00,weatherlink.com 1.10,2013-06-28 23:13:00,
2013-06-28 19:28:00,86.2,80.0,29.69,WSW,250,8.0,12.0,81,0.00,,,0.00,weatherlink.com 1.10,2013-06-28 23:28:00,
2013-06-28 19:43:00,86.5,80.0,29.69,WNW,284,8.0,12.0,80,0.00,,,0.00,weatherlink.com 1.10,2013-06-28 23:43:00,
2013-06-28 19:58:00,86.0,79.0,29.69,WSW,240,4.0,12.0,80,0.00,,,0.00,weatherlink.com 1.10,2013-06-28 23:58:00,
2013-06-28 20:13:00,85.5,78.0,29.70,SW,219,3.0,8.0,78,0.00,,,0.00,weatherlink.com 1.10,2013-06-29 00:13:00,
2013-06-28 20:28:00,85.0,77.0,29.70,WSW,245,6.0,8.0,77,0.00,,,0.00,weatherlink.com 1.10,2013-06-29 00:28:00,
2013-06-28 20:43:00,84.4,77.0,29.70,SSW,212,5.0,10.0,77,0.00,,,0.00,weatherlink.com 1.10,2013-06-29 00:43:00,
2013-06-28 20:58:00,84.1,76.0,29.70,WSW,250,3.0,7.0,77,0.00,,,0.00,weatherlink.com 1.10,2013-06-29 00:58:00,
2013-06-28 21:13:00,83.8,76.0,29.70,WSW,242,4.0,8.0,77,0.00,,,0.00,weatherlink.com 1.10,2013-06-29 01:13:00,
2013-06-28 21:28:00,83.5,76.0,29.70,WSW,253,5.0,7.0,77,0.00,,,0.00,weatherlink.com 1.10,2013-06-29 01:28:00,
2013-06-28 21:43:00,83.2,75.0,29.70,WSW,248,2.0,7.0,77,0.00,,,0.00,weatherlink.com 1.10,2013-06-29 01:43:00,
2013-06-28 21:58:00,82.9,75.0,29.69,West,259,4.0,7.0,77,0.00,,,0.00,weatherlink.com 1.10,2013-06-29 01:58:00,
2013-06-28 22:13:00,82.9,75.0,29.70,WSW,257,6.0,9.0,77,0.00,,,0.00,weatherlink.com 1.10,2013-06-29 02:13:00,
2013-06-28 22:28:00,82.5,75.0,29.70,West,259,5.0,13.0,77,0.00,,,0.00,weatherlink.com 1.10,2013-06-29 02:28:00,
2013-06-28 22:43:00,81.9,74.0,29.69,SW,233,7.0,10.0,78,0.00,,,0.00,weatherlink.com 1.10,2013-06-29 02:43:00,
2013-06-28 22:58:00,81.6,74.0,29.69,WSW,255,5.0,10.0,77,0.00,,,0.00,weatherlink.com 1.10,2013-06-29 02:58:00,
2013-06-28 23:13:00,81.0,74.0,29.69,SW,229,7.0,11.0,78,0.00,,,0.00,weatherlink.com 1.10,2013-06-29 03:13:00,
2013-06-28 23:28:00,80.6,73.0,29.69,SSW,201,3.0,9.0,77,0.00,,,0.00,weatherlink.com 1.10,2013-06-29 03:28:00,
2013-06-28 23:43:00,80.4,73.0,29.70,WSW,250,6.0,9.0,79,0.00,,,0.00,weatherlink.com 1.10,2013-06-29 03:43:00,
2013-06-28 23:58:00,80.4,74.0,29.70,WSW,252,4.0,8.0,80,0.00,,,0.00,weatherlink.com 1.10,2013-06-29 03:58:00,